Minneapolis Flying Cloud, MN

6:17 PM CDT on April 26, 2018 (GMT -0500)
Flying Cloud

Weather History for KFCM - April, 2012

Change the Weather History Date:

Friday, April 6, 2012

  Actual Average Record
Temperature  
Mean Temperature 50 °F -  
Max Temperature 63 °F 49 °F 66 °F (2004)
Min Temperature 39 °F 32 °F 12 °F (2018)
Degree Days  
Heating Degree Days 15    
Moisture  
Dew Point 27 °F    
Average Humidity 42    
Maximum Humidity 65    
Minimum Humidity 22    
Precipitation  
Precipitation 0.00 in - - ()
Sea Level Pressure  
Sea Level Pressure 30.17 in    
Wind  
Wind Speed 9 mph (SE)    
Max Wind Speed 20 mph    
Max Gust Speed 24 mph    
Visibility 10 miles    
Events      
Averages and records for this station are not official NWS values.
T = Trace of Precipitation, MM = Missing Value Source: NWS Daily Summary

Daily Weather History Graph

Daily Weather History Graph

Search for Another Location

Airport or City:

Astronomy

Apr. 06, 2012 Rise Set
Actual Time 6:44 AM CDT 7:48 PM CDT
Civil Twilight 6:14 AM CDT 8:18 PM CDT
Nautical Twilight 5:38 AM CDT 8:54 PM CDT
Astronomical Twilight 5:01 AM CDT 9:32 PM CDT
Moon 8:12 PM CDT (4/6) 6:16 AM CDT (4/6)
Length of Visible Light 14h 03m
Length of Day
13h 03m
Full, 100% of the Moon is Illuminated
Apr 6
Full
Apr 6
Full
Apr 13
Last Quarter
Apr 21
New
Apr 29
First Quarter

Hourly Weather History & Observations

Time (CDT) Temp. Windchill Dew Point Humidity Pressure Visibility Wind Dir Wind Speed Gust Speed Precip Events Conditions
12:53 AM 44.1 °F 40.8 °F 28.9 °F 55% 30.18 in 10.0 mi NE 5.8 mph - N/A   Clear
1:53 AM 42.1 °F 39.2 °F 28.9 °F 60% 30.20 in 10.0 mi ENE 4.6 mph - N/A   Clear
3:53 AM 41.0 °F 37.1 °F 28.0 °F 60% 30.22 in 10.0 mi East 5.8 mph - N/A   Clear
4:53 AM 39.9 °F 36.7 °F 28.0 °F 63% 30.23 in 10.0 mi East 4.6 mph - N/A   Clear
5:53 AM 39.0 °F 34.8 °F 28.0 °F 65% 30.24 in 10.0 mi ESE 5.8 mph - N/A   Clear
6:53 AM 39.0 °F 34.8 °F 28.0 °F 65% 30.24 in 10.0 mi ESE 5.8 mph - N/A   Clear
7:53 AM 41.0 °F 36.4 °F 28.9 °F 62% 30.27 in 10.0 mi SE 6.9 mph - N/A   Clear
8:53 AM 44.1 °F 37.7 °F 28.9 °F 55% 30.27 in 10.0 mi SSE 12.7 mph - N/A   Clear
9:53 AM 48.9 °F - 27.0 °F 43% 30.28 in 10.0 mi SE 12.7 mph - N/A   Clear
10:53 AM 52.0 °F - 26.1 °F 37% 30.27 in 10.0 mi SSE 10.4 mph - N/A   Clear
11:53 AM 55.0 °F - 26.1 °F 33% 30.25 in 10.0 mi ESE 10.4 mph - N/A   Clear
12:53 PM 57.9 °F - 26.1 °F 30% 30.22 in 10.0 mi SE 11.5 mph 20.7 mph N/A   Clear
1:53 PM 57.9 °F - 21.9 °F 25% 30.19 in 10.0 mi ESE 10.4 mph 18.4 mph N/A   Clear
2:53 PM 60.1 °F - 21.0 °F 22% 30.16 in 10.0 mi SE 15.0 mph 23.0 mph N/A   Clear
3:53 PM 61.0 °F - 23.0 °F 23% 30.13 in 10.0 mi SE 16.1 mph 23.0 mph N/A   Clear
4:53 PM 61.0 °F - 25.0 °F 25% 30.11 in 10.0 mi SE 19.6 mph 24.2 mph N/A   Clear
5:53 PM 60.1 °F - 25.0 °F 26% 30.08 in 10.0 mi SSE 11.5 mph - N/A   Clear
6:53 PM 59.0 °F - 26.1 °F 28% 30.07 in 10.0 mi SE 16.1 mph 21.9 mph N/A   Clear
7:53 PM 55.9 °F - 28.0 °F 34% 30.08 in 10.0 mi SE 10.4 mph - N/A   Clear
8:53 PM 55.0 °F - 28.0 °F 35% 30.08 in 10.0 mi SE 12.7 mph - N/A   Clear
9:53 PM 53.1 °F - 28.0 °F 38% 30.07 in 10.0 mi SE 12.7 mph - N/A   Clear
10:53 PM 51.1 °F - 28.9 °F 43% 30.07 in 10.0 mi SE 11.5 mph - N/A   Clear
11:53 PM 51.1 °F - 30.9 °F 46% 30.09 in 10.0 mi SE 9.2 mph - N/A   Clear